Regional Weather Roundup
Issued by NWS

Home | Current Version | Previous Version | Text Only | Print | Product List | Glossary Off
Versions: 1 2 3 4 5 6 7 8 9 10 11 12 13 14 15 16 17 18 19 20 21 22 23 24 25 26 27 28 29 30 31 32 33 34 35 36 37 38 39 40 41 42 43 44 45 46 47 48 49 50

000
ASUS43 KMKX 241110
RWRWI

WISCONSIN REGIONAL WEATHER ROUNDUP
NATIONAL WEATHER SERVICE MILWAUKEE/SULLIVAN WI
500 AM CST SAT FEB 24 2018

NOTE: "FAIR" INDICATES FEW OR NO CLOUDS BELOW 12,000 FEET WITH NO
SIGNIFICANT WEATHER AND/OR OBSTRUCTIONS TO VISIBILITY.

WIZ001-002-006>008-014>016-023>028-241200-
NORTHWEST WISCONSIN

CITY           SKY/WX    TMP DP  RH WIND       PRES   REMARKS
SUPERIOR ARPT  FAIR       3   1  91 SW3       30.22S
ASHLAND        FAIR       4   2  91 SW5       30.21F WCI  -5
HAYWARD        FOG        5   2  87 N3        30.18F VSB 1/4
SIREN          MOCLDY    -5  -9  83 CALM      30.19F
CUMBERLAND     HAZE      -6 -11  77 CALM      30.19S VSB<1/4
RICE LAKE      FOG        4   1  88 CALM      30.22S VSB<1/4
CHETEK         FOG        8   6  90 CALM      30.21S VSB<1/4
LADYSMITH      SNOW       8   5  88 CALM      30.22S VSB<1/4
EAU CLAIRE     CLOUDY     9   5  84 E5        30.21F FOG     WCI   1
MENOMONIE      SNOW       4   1  86 CALM      30.22F VSB<1/4
NEW RICHMOND   FOG        0  -4  82 CALM      30.20F VSB<1/4
OSCEOLA        MOCLDY    -2  -5  84 CALM      30.23F
$$

WIZ003>005-009-010-017-018-241200-
NORTH CENTRAL WISCONSIN

CITY           SKY/WX    TMP DP  RH WIND       PRES   REMARKS
MANITOWISH WTR CLOUDY     1  -1  92 CALM      30.16S
ARBOR VITAE    FOG        9   6  88 CALM      30.16S VSB 1/2
WOODRUFF       FOG        9   6  88 CALM      30.16S VSB 1/2
RHINELANDER    FOG        5   3  91 CALM      30.18S VSB 1/4
EAGLE RIVER    FAIR       5   1  84 CALM      30.16S
LAND O LAKES   FAIR       6   3  87 CALM      30.18S FOG
PHILLIPS       FOG        4   1  90 CALM      30.17S VSB<1/4
TOMAHAWK       CLOUDY     1  -2  86 CALM      30.20S
MEDFORD        FOG        8   6  89 CALM      30.18F VSB 1/4
MERRILL        FOG       11   9  92 CALM      30.21F VSB 1/2
$$

WIZ029-030-035-036-043>047-241200-
CENTRAL WISCONSIN

CITY           SKY/WX    TMP DP  RH WIND       PRES   REMARKS
WAUSAU         FOG       18  16  92 NW3       30.20F VSB 1/2
MOSINEE        FOG       19  19 100 NW5       30.21F VSB 3/4 WCI  13
MARSHFIELD     FOG       16  13  88 CALM      30.18F VSB<1/4
STEVENS POINT  FAIR      14  14  99 CALM      30.22F FOG
WAUPACA        FAIR      23  20  88 CALM      30.23F FOG
WAUTOMA        FAIR      20  19  96 CALM        N/A  FOG
WISC RAPIDS    FAIR      17  12  80 CALM      30.22F HAZE
CAMP DOUGLAS   FAIR      16  14  93 CALM      30.21S FOG
$$

WIZ011>013-019>022-031-037>040-048>050-241200-
NORTHEAST WISCONSIN

CITY           SKY/WX    TMP DP  RH WIND       PRES   REMARKS
ANTIGO         FOG        6   4  90 CALM      30.19F VSB 3/4
SHAWANO        MOCLDY    28  23  81 CALM      30.24S
OCONTO         CLOUDY    29  24  81 CALM      30.25S
STURGEON BAY   CLOUDY    30  23  75 N3        30.25F
GREEN BAY      CLOUDY    30  23  75 CALM      30.24S
MANITOWOC      CLOUDY    30  23  75 CALM      30.26S
APPLETON       MOCLDY    23  19  86 W3        30.22S
CLINTONVILLE   FAIR      25  21  84 CALM      30.23F
OSHKOSH        MOCLDY    25  22  88 CALM      30.23S
$$

WIZ032>034-041-042-053>061-241200-
SOUTHWEST WISCONSIN

CITY           SKY/WX    TMP DP  RH WIND       PRES   REMARKS
LA CROSSE      FAIR      19  17  92 NW3       30.22F FOG
SPARTA         FAIR      15  14  96 CALM      30.22F FOG
VIROQUA        FAIR      21  21 100 E5        30.17F WCI  14
BOSCOBEL       FAIR      25  21  85 E3        30.20F FOG
PRAIRIE DU CHI FAIR      23  20  90 CALM      30.19F FOG
PLATTEVILLE    MOCLDY    27  26  99 NE14      30.16F WCI  15
$$

WIZ056-057-062-063-064-067-068-241200-
SOUTH CENTRAL WISCONSIN

CITY           SKY/WX    TMP DP  RH WIND       PRES   REMARKS
REEDSBURG      FAIR      23  22  97 N3        30.21F
BARABOO/DELLS  FAIR      23  21  93 NE3       30.20F
LONE ROCK      FAIR      27  23  85 E5        30.21F FOG     WCI  22
MINERAL POINT  MOCLDY    28  28 100 NE10G17   30.15F WCI  19
MADISON        FAIR      25  21  85 E7        30.21F WCI  17
MIDDLETON      CLOUDY    28  25  87 E3        30.21S
WATERTOWN      CLOUDY    28  26  90 NE7       30.21F WCI  21
MONROE         MOCLDY    28  27  93 NE16      30.15F WCI  17
JANESVILLE     CLOUDY    30  30 100 NE10      30.18F WCI  21
$$

WIZ051-052-058>065-066-070>072-241200-
SOUTHEAST WISCONSIN

CITY           SKY/WX    TMP DP  RH WIND       PRES   REMARKS
MILWAUKEE      CLOUDY    32  26  78 NE9       30.23S WCI  24
WAUKESHA       CLOUDY    28  23  80 NE9       30.23F WCI  20
MILWAUKEE/TIMM CLOUDY    30  21  69 NE5       30.24S WCI  25
RACINE         CLOUDY    32  27  81 NE10      30.24F WCI  24
BURLINGTON     FAIR      28  24  85 NE6       30.21F WCI  21
KENOSHA        FAIR      30  25  81 NE10      30.21F WCI  21
FOND DU LAC    CLOUDY    29  21  72 NE5       30.23S WCI  24
SHEBOYGAN      CLOUDY    29  23  78 N3        30.25R
WEST BEND      MOCLDY    28  25  86 CALM      30.23S
JUNEAU         FAIR      25  22  86 CALM      30.23F
$$

LSZ147-162-241200-
LAKE SUPERIOR

STATION/POSITION TIME  TEMP    WIND        PRES    WAVE
                       AIR SEA DIR/SP/G            HT/PER
                 (UTC) (F)     (DEG/KT/KT) (MB)    (FT/S)
DEVILS ISLAND    1100   20     270/ 11/ 12 1023.9F
SAXON HARBOR     1040   14     180/  3/  4 1022.7F
$$

LMZ867-665-643>646-241200-
LAKE MICHIGAN

STATION/POSITION TIME  TEMP    WIND        PRES    WAVE
                       AIR SEA DIR/SP/G            HT/PER
                 (UTC) (F)     (DEG/KT/KT) (MB)    (FT/S)
NORTHPORT PIER   1040   31                 1024.0F
KEWAUNEE LAKESHO 1042   31     360/  3/  4 1023.4F
SHEBOYGAN LAKESH 1100   32     360/  7/  8 1024.9R
PORT WASHINGTON  1030   30      20/  2/  4 1025.4R
KENOSHA   LAKESH 1100   33      50/ 10/ 12 1023.4
$$

TC  - TEMPERATURE IN CELSIUS
VSB - VISIBILITY IN STATUTE MILES
WCI - WIND CHILL INDEX
HX  - HEAT INDEX





USA.gov is the U.S. government's official web portal to all federal, state and local government web resources and services.